Regional Weather Roundup
Issued by NWS

Home | Current Version | Previous Version | Graphics & Text | Print | Product List | Glossary On
Versions: 1 2 3 4 5 6 7 8 9 10 11 12 13 14 15 16 17 18 19 20 21 22 23 24 25 26 27 28 29 30 31 32 33 34 35 36 37 38 39 40 41 42 43 44 45 46 47 48 49 50
453
ASUS43 KIND 031359
RWRIN

WEATHER ROUNDUP FOR INDIANA
NATIONAL WEATHER SERVICE INDIANAPOLIS IN
900 AM EST SAT DEC 03 2016

NOTE: "FAIR" INDICATES FEW OR NO CLOUDS BELOW 12,000 FEET WITH NO
SIGNIFICANT WEATHER AND/OR OBSTRUCTIONS TO VISIBILITY.

* - STATION DOES NOT REPORT WEATHER SUCH AS PRECIPITATION OR FOG.

+ - STATION NOT QUALITY CONTROLLED BY THE NATIONAL WEATHER SERVICE.
    USE DATA WITH CAUTION...ESPECIALLY DEWPOINT AND RELATIVE
    HUMIDITY OBSERVATIONS.

INZ001>003-010>013-019-020-031500-
NORTHWEST INDIANA

CITY           SKY/WX    TMP DP  RH WIND       PRES   REMARKS
GARY /AIRPORT/ CLOUDY    34  23  64 W8        30.37R WCI  27
LA PORTE +     CLOUDY    34  29  82 W8        30.35R WCI  27

$$

LMZ046-743>745-031500-
SOUTHERN LAKE MICHIGAN

STATION/POSITION TIME  TEMP    WIND        PRES    WAVE
                       AIR SEA DIR/SP/G            HT
                 (UTC) (F)     (DEG/KT/KT) (MB)    (FT)
BURNS HARBOR     1300   35     280/ 11/ 16 1027.8
MICHIGAN CITY    1330   34     260/ 11/ 14   N/A

$$

INZ004-005-014>016-021>024-031500-
NORTH CENTRAL INDIANA

CITY           SKY/WX    TMP DP  RH WIND       PRES   REMARKS
ELKHART        MOCLDY    36  28  75 W6        30.33R
GOSHEN         CLOUDY    34  27  75 W6        30.33R WCI  29
SOUTH BEND     CLOUDY    33  26  75 W5        30.34R WCI  29

$$

INZ006>009-017-018-025>027-031500-
NORTHEAST INDIANA

CITY           SKY/WX    TMP DP  RH WIND       PRES   REMARKS
ANGOLA *+      CLOUDY    36  28  75 W5        30.31R
FORT WAYNE     CLOUDY    35  26  69 W7        30.35R WCI  29
KENDALLVILLE + CLOUDY    33  28  80 W6        30.32S WCI  28

$$

INZ028-029-035-036-043>045-051>053-031500-
WEST CENTRAL INDIANA

CITY           SKY/WX    TMP DP  RH WIND       PRES   REMARKS
CRAWFORDSVL +  CLOUDY    33  27  81 NW5       30.35F WCI  28
GREENCASTLE +  CLOUDY    34  32  93 CALM      30.36S
LAFAYETTE      PTCLDY    32  26  78 W6        30.35F WCI  26
TERRE HAUTE    CLOUDY    37  28  70 CALM      30.38S

$$

INZ030>032-037>040-046>048-054>057-064-065-031500-
CENTRAL INDIANA

CITY           SKY/WX    TMP DP  RH WIND       PRES   REMARKS
ANDERSON       CLOUDY    36  27  69 CALM      30.36
FRANKFORT +    CLOUDY    36  30  79 NW3       30.36S
GREENWOOD *+   CLOUDY    37  29  74 NW8       30.36S
INDIANAPOLIS   CLOUDY    35  28  75 NW6       30.36R WCI  30
-EAGLE CREEK   CLOUDY    36  28  73 N6        30.35R
KOKOMO +       CLOUDY    35  27  72 NW6       30.35S WCI  30
SHELBYVILLE    CLOUDY    38  29  70 W5        30.35R

$$

INZ033-034-041-042-049-050-058-059-031500-
EAST CENTRAL INDIANA

CITY           SKY/WX    TMP DP  RH WIND       PRES   REMARKS
MUNCIE         CLOUDY    37  26  64 NW5       30.35R

$$

INZ060-061-067>069-081>083-085>088-031500-
SOUTHWEST INDIANA

CITY           SKY/WX    TMP DP  RH WIND       PRES   REMARKS
EVANSVILLE     CLOUDY    34  30  85 CALM      30.39F
HUNTINGBURG *+ CLOUDY    37  34  87 SE3       30.39S

$$

INZ062-063-066-070>080-084-089>092-031500-
SOUTH CENTRAL AND SOUTHEAST INDIANA

CITY           SKY/WX    TMP DP  RH WIND       PRES   REMARKS
BLOOMINGTON    CLOUDY    38  30  73 CALM      30.37R
MADISON *+     CLOUDY    37  32  81 CALM      30.40R
SEYMOUR +      CLOUDY    39  34  81 CALM      30.39R

$$





USA.gov is the U.S. government's official web portal to all federal, state and local government web resources and services.